TimeMST,TemperatureF,Dew PointF,Humidity,Sea Level PressureIn,VisibilityMPH,Wind Direction,Wind SpeedMPH,Gust SpeedMPH,PrecipitationIn,Events,Conditions,WindDirDegrees,DateUTC
12:11 AM,21.2,19.4,93,29.79,4.0,NNW,9.2,-,0.00,Snow,Light Snow,340,2013-03-07 07:11:00
12:26 AM,21.2,19.4,93,29.79,3.0,NNW,9.2,-,0.00,Snow,Light Snow,340,2013-03-07 07:26:00
12:36 AM,21.2,19.4,93,29.79,1.8,NNW,6.9,-,0.00,Snow,Light Snow,340,2013-03-07 07:36:00
12:51 AM,21.2,19.4,93,29.78,1.5,North,10.4,-,0.00,Snow,Light Snow,350,2013-03-07 07:51:00
12:56 AM,21.0,19.0,92,29.93,1.8,North,8.1,-,0.00,Snow,Light Snow,360,2013-03-07 07:56:00
1:06 AM,21.2,19.4,93,29.79,3.0,North,8.1,-,0.00,Snow,Light Snow,360,2013-03-07 08:06:00
1:18 AM,21.2,19.4,93,29.79,5.0,North,6.9,-,0.00,Snow,Light Snow,360,2013-03-07 08:18:00
1:56 AM,21.0,18.0,88,29.93,10.0,North,9.2,-,0.00,,Overcast,350,2013-03-07 08:56:00
2:56 AM,19.9,18.0,92,29.96,10.0,NNW,4.6,-,N/A,,Overcast,330,2013-03-07 09:56:00
3:56 AM,19.9,17.1,89,29.97,8.0,NNW,3.5,-,N/A,,Overcast,330,2013-03-07 10:56:00
4:56 AM,19.9,17.1,89,29.99,3.0,NW,3.5,-,0.00,Snow,Light Snow,310,2013-03-07 11:56:00
5:56 AM,19.9,17.1,89,30.01,10.0,NW,3.5,-,0.00,,Overcast,320,2013-03-07 12:56:00
6:56 AM,19.0,16.0,88,30.03,9.0,Calm,Calm,-,N/A,,Overcast,0,2013-03-07 13:56:00
7:56 AM,19.0,16.0,88,30.06,8.0,NNW,6.9,-,N/A,,Overcast,340,2013-03-07 14:56:00
8:56 AM,19.9,15.1,81,30.07,8.0,NNW,5.8,-,N/A,,Clear,330,2013-03-07 15:56:00
9:56 AM,21.0,15.1,78,30.08,9.0,NW,4.6,-,N/A,,Clear,320,2013-03-07 16:56:00
10:56 AM,23.0,17.1,78,30.08,9.0,West,3.5,-,N/A,,Clear,270,2013-03-07 17:56:00
11:56 AM,25.0,17.1,72,30.09,10.0,Calm,Calm,-,N/A,,Clear,0,2013-03-07 18:56:00
12:56 PM,24.8,17.6,74,29.96,10.0,North,3.5,-,N/A,,Clear,10,2013-03-07 19:56:00
1:56 PM,27.0,18.0,69,30.08,10.0,North,5.8,-,N/A,,Clear,360,2013-03-07 20:56:00
2:56 PM,30.0,21.0,69,30.07,10.0,NNE,6.9,-,N/A,,Clear,20,2013-03-07 21:56:00
3:56 PM,28.9,19.0,67,30.09,10.0,NE,5.8,-,N/A,,Clear,40,2013-03-07 22:56:00
4:56 PM,27.0,19.0,72,30.11,10.0,NE,9.2,-,N/A,,Clear,40,2013-03-07 23:56:00
5:56 PM,24.1,17.1,75,30.12,10.0,NNE,6.9,-,N/A,,Clear,20,2013-03-08 00:56:00
6:56 PM,19.0,15.1,85,30.15,9.0,NNE,4.6,-,N/A,,Clear,20,2013-03-08 01:56:00
7:56 PM,17.1,15.1,92,30.17,9.0,Calm,Calm,-,N/A,,Clear,0,2013-03-08 02:56:00
8:56 PM,16.0,12.9,88,30.17,9.0,Calm,Calm,-,N/A,,Clear,0,2013-03-08 03:56:00
9:56 PM,15.1,12.0,88,30.17,7.0,Calm,Calm,-,N/A,,Clear,0,2013-03-08 04:56:00
10:56 PM,14.0,10.9,88,30.17,7.0,Calm,Calm,-,N/A,,Clear,0,2013-03-08 05:56:00
11:56 PM,12.0,10.0,92,30.16,7.0,Calm,Calm,-,N/A,,Clear,0,2013-03-08 06:56:00